Weather History for KCBM - January, 2014

Change the Weather History Date:

Monday, January 6, 2014

  Actual Average Record
Temperature  
Mean Temperature 19 °F -  
Max Temperature 26 °F 52 °F 69 °F (2012)
Min Temperature 12 °F 34 °F 12 °F (2014)
Degree Days  
Heating Degree Days 46    
Moisture  
Dew Point 5 °F    
Average Humidity 53    
Maximum Humidity 70    
Minimum Humidity 32    
Precipitation  
Precipitation 0.00 in - - ()
Sea Level Pressure  
Sea Level Pressure 30.43 in    
Wind  
Wind Speed 17 mph (NNW)    
Max Wind Speed 24 mph    
Max Gust Speed 33 mph    
Visibility 10 miles    
Events      
Averages and records for this station are not official NWS values.
T = Trace of Precipitation, MM = Missing Value Source: NWS Daily Summary

Daily Weather History Graph

Daily Weather History Graph

Search for Another Location

Airport or City:

Trip Planner

Search our weather history database for the weather conditions in past years. The results will help you decide how hot, cold, wet, or windy it might be!

Date:

Astronomy

Jan. 06, 2014 Rise Set
Actual Time 6:59 AM CST 5:00 PM CST
Civil Twilight 6:31 AM CST 5:27 PM CST
Nautical Twilight 6:00 AM CST 5:58 PM CST
Astronomical Twilight 5:30 AM CST 6:29 PM CST
Moon 10:32 AM CST (1/6) 11:13 PM CST (1/6)
Length of Visible Light 10h 56m
Length of Day
10h 01m
Waxing Crescent, 35% of the Moon is Illuminated
Jan 6
Waxing Crescent
Jan 7
First Quarter
Jan 15
Full
Jan 23
Last Quarter
Jan 30
New

Hourly Weather History & Observations

Time (CST) Temp. Windchill Dew Point Humidity Pressure Visibility Wind Dir Wind Speed Gust Speed Precip Events Conditions
12:46 AM 26.6 °F 12.7 °F 17.6 °F 69% 30.22 in 10.0 mi NNW 20.7 mph 26.5 mph N/A   Overcast
12:58 AM 25.9 °F 12.9 °F 17.2 °F 70% 30.25 in 10.0 mi North 17.3 mph 28.8 mph 0.00 in   Overcast
1:44 AM 24.8 °F 11.1 °F 15.8 °F 69% 30.26 in 10.0 mi NNW 18.4 mph 24.2 mph N/A   Overcast
1:45 AM 24.8 °F 11.1 °F 15.8 °F 69% 30.27 in 10.0 mi NNW 18.4 mph 24.2 mph N/A   Overcast
1:46 AM 24.8 °F 11.5 °F 15.8 °F 69% 30.27 in 10.0 mi NNW 17.3 mph 24.2 mph N/A   Overcast
1:47 AM 24.8 °F 11.5 °F 15.8 °F 69% 30.27 in 10.0 mi NNW 17.3 mph 24.2 mph N/A   Overcast
1:58 AM 24.4 °F 8.8 °F 15.4 °F 69% 30.28 in 10.0 mi NNW 24.2 mph 31.1 mph 0.00 in   Overcast
2:05 AM 23.0 °F 8.0 °F 14.0 °F 68% 30.28 in 10.0 mi NNW 20.7 mph 32.2 mph N/A   Overcast
2:13 AM 23.0 °F 8.0 °F 14.0 °F 68% 30.29 in 10.0 mi NNW 20.7 mph 33.4 mph N/A   Overcast
2:23 AM 23.0 °F 8.7 °F 14.0 °F 68% 30.29 in 10.0 mi NNW 18.4 mph 29.9 mph N/A   Overcast
2:40 AM 23.0 °F 9.2 °F 14.0 °F 68% 30.30 in 10.0 mi NNW 17.3 mph 25.3 mph N/A   Overcast
2:45 AM 23.0 °F 8.7 °F 14.0 °F 68% 30.30 in 10.0 mi NNW 18.4 mph 24.2 mph N/A   Overcast
2:56 AM 23.0 °F 10.1 °F 14.0 °F 68% 30.31 in 10.0 mi NNW 15.0 mph - N/A   Overcast
2:58 AM 23.0 °F 11.1 °F 14.0 °F 68% 30.32 in 10.0 mi NNW 12.7 mph - 0.00 in   Overcast
3:23 AM 21.2 °F 6.8 °F 12.2 °F 68% 30.32 in 10.0 mi NNW 17.3 mph 24.2 mph N/A   Overcast
3:43 AM 21.2 °F 7.8 °F 10.4 °F 63% 30.33 in 10.0 mi NNW 15.0 mph - N/A   Scattered Clouds
3:58 AM 20.7 °F 6.6 °F 11.1 °F 67% 30.35 in 10.0 mi NNW 16.1 mph 20.7 mph N/A   Scattered Clouds
4:58 AM 18.7 °F 3.1 °F 5.0 °F 55% 30.39 in 10.0 mi NNW 18.4 mph 28.8 mph N/A   Clear
5:58 AM 17.6 °F 2.7 °F 3.0 °F 53% 30.41 in 10.0 mi NNW 16.1 mph 24.2 mph N/A   Clear
6:58 AM 16.3 °F 1.0 °F 2.8 °F 55% 30.45 in 10.0 mi NNW 16.1 mph - N/A   Clear
7:58 AM 16.5 °F 0.8 °F 1.0 °F 51% 30.49 in 10.0 mi NW 17.3 mph 21.9 mph N/A   Clear
8:58 AM 18.1 °F 2.4 °F 1.9 °F 49% 30.51 in 10.0 mi NNW 18.4 mph 25.3 mph N/A   Clear
9:58 AM 18.3 °F 2.2 °F 0.1 °F 45% 30.54 in 10.0 mi NW 19.6 mph 26.5 mph N/A   Clear
10:58 AM 19.4 °F 5.0 °F -2.7 °F 38% 30.53 in 10.0 mi WNW 16.1 mph 20.7 mph N/A   Clear
11:24 AM 19.4 °F 2.8 °F -4.0 °F 36% 30.50 in 10.0 mi North 21.9 mph 26.5 mph N/A   Clear
11:57 AM 19.4 °F 5.0 °F -4.0 °F 36% 30.49 in 10.0 mi NW 16.1 mph 27.6 mph N/A   Clear
11:58 AM 19.9 °F 5.7 °F -3.8 °F 35% 30.52 in 10.0 mi NW 16.1 mph 27.6 mph N/A   Clear
12:06 PM 21.2 °F 7.8 °F -2.2 °F 36% 30.49 in 10.0 mi North 15.0 mph 21.9 mph N/A   Clear
12:29 PM 21.2 °F 7.3 °F -2.2 °F 36% 30.48 in 10.0 mi NW 16.1 mph 21.9 mph N/A   Clear
12:42 PM 21.2 °F 6.0 °F -2.2 °F 36% 30.47 in 10.0 mi NW 19.6 mph 27.6 mph N/A   Clear
12:58 PM 20.7 °F 7.6 °F -2.6 °F 36% 30.49 in 10.0 mi NW 13.8 mph 20.7 mph N/A   Clear
12:59 PM 21.2 °F 8.9 °F -2.2 °F 36% 30.46 in 10.0 mi NNW 12.7 mph 20.7 mph N/A   Clear
1:58 PM 21.7 °F 9.6 °F -4.2 °F 32% 30.50 in 10.0 mi NNW 12.7 mph 23.0 mph N/A   Clear
2:58 PM 21.7 °F 8.0 °F -3.8 °F 33% 30.50 in 10.0 mi NW 16.1 mph - N/A   Clear
3:58 PM 20.8 °F 6.8 °F -3.3 °F 35% 30.52 in 10.0 mi NNW 16.1 mph 21.9 mph N/A   Clear
4:58 PM 19.0 °F 5.0 °F -4.0 °F 36% 30.54 in 10.0 mi NW 15.0 mph - N/A   Clear
5:58 PM 17.6 °F 5.0 °F -2.4 °F 41% 30.55 in 10.0 mi NNW 11.5 mph - N/A   Clear
6:58 PM 16.5 °F 4.3 °F -0.6 °F 47% 30.57 in 10.0 mi NW 10.4 mph - N/A   Clear
7:58 PM 15.8 °F 5.1 °F -0.8 °F 48% 30.60 in 10.0 mi NNW 8.1 mph - N/A   Clear
8:58 PM 14.5 °F 3.6 °F -0.2 °F 52% 30.62 in 10.0 mi NNW 8.1 mph - N/A   Clear
9:58 PM 12.9 °F 3.8 °F 0.5 °F 58% 30.62 in 10.0 mi North 5.8 mph - N/A   Clear
10:58 PM 12.2 °F 2.9 °F 1.2 °F 61% 30.60 in 10.0 mi North 5.8 mph - N/A   Clear
11:58 PM 12.0 °F 4.1 °F 0.3 °F 59% 30.60 in 10.0 mi North 4.6 mph - N/A   Clear